Location: Doschendorf
(50.0069°N, 11.0602°E)
Time: 01:17:43
(UTC+00:00)

Cosmos 1980 Rocket - Pass Details

Date: 17 November 2019
Orbit: 827 x 851 km, 71.0° (Epoch: 05 December)

Event Time Altitude Azimuth Distance (km) Brightness Sun altitude
Rises 18:04:19 0° 206° (SSW) 3,387 5.7 -24.6°
Reaches altitude 10° 18:06:44 10° 206° (SSW) 2,460 4.9 -25.0°
Maximum altitude 18:12:24 87° 120° (ESE) 856 2.1 -25.9°
Enters shadow 18:13:27 61° 33° (NNE) 960 2.2 -26.1°
